TimeCDT,TemperatureF,Dew PointF,Humidity,Sea Level PressureIn,VisibilityMPH,Wind Direction,Wind SpeedMPH,Gust SpeedMPH,PrecipitationIn,Events,Conditions,WindDirDegrees,DateUTC
12:15 AM,27.9,25.7,92,30.07,5.0,South,6.9,-,N/A,,Clear,180,2013-03-15 05:15:00
12:35 AM,27.1,24.8,91,30.06,5.0,South,6.9,-,N/A,,Clear,190,2013-03-15 05:35:00
12:55 AM,27.1,25.0,92,30.05,5.0,South,9.2,-,N/A,,Clear,180,2013-03-15 05:55:00
1:15 AM,27.1,24.8,91,30.04,5.0,South,9.2,-,N/A,,Clear,180,2013-03-15 06:15:00
1:35 AM,27.7,25.5,92,30.04,5.0,South,9.2,-,N/A,,Clear,180,2013-03-15 06:35:00
1:55 AM,27.3,25.2,92,30.03,4.0,South,9.2,-,N/A,,Clear,180,2013-03-15 06:55:00
2:15 AM,27.0,24.8,92,30.01,4.0,South,9.2,-,N/A,,Clear,180,2013-03-15 07:15:00
2:35 AM,27.1,24.8,91,30.00,4.0,South,8.1,-,N/A,,Clear,180,2013-03-15 07:35:00
2:55 AM,27.3,25.2,92,30.00,4.0,South,8.1,-,N/A,,Clear,190,2013-03-15 07:55:00
3:15 AM,27.9,25.7,92,29.99,4.0,South,8.1,-,N/A,,Clear,190,2013-03-15 08:15:00
3:35 AM,27.7,25.5,92,29.98,4.0,South,8.1,-,N/A,,Clear,190,2013-03-15 08:35:00
3:55 AM,27.0,24.8,92,29.98,4.0,SSW,8.1,-,N/A,,Clear,200,2013-03-15 08:55:00
4:15 AM,26.6,24.6,92,29.96,4.0,South,6.9,-,N/A,,Clear,190,2013-03-15 09:15:00
4:35 AM,26.1,23.9,92,29.96,4.0,South,5.8,-,N/A,,Clear,190,2013-03-15 09:35:00
4:55 AM,25.7,23.5,92,29.95,4.0,South,6.9,-,N/A,,Clear,190,2013-03-15 09:55:00
5:15 AM,25.7,23.7,92,29.94,3.0,South,6.9,-,N/A,,Clear,190,2013-03-15 10:15:00
5:35 AM,26.6,24.4,92,29.96,4.0,Calm,Calm,-,N/A,,Clear,0,2013-03-15 10:35:00
5:55 AM,26.6,24.4,92,29.95,4.0,SSW,3.5,-,N/A,,Clear,210,2013-03-15 10:55:00
6:15 AM,25.7,23.5,92,29.95,4.0,Calm,Calm,-,N/A,,Clear,0,2013-03-15 11:15:00
6:35 AM,26.6,24.6,92,29.94,4.0,Calm,Calm,-,N/A,,Clear,0,2013-03-15 11:35:00
6:55 AM,26.6,24.4,92,29.94,4.0,Calm,Calm,-,N/A,,Clear,0,2013-03-15 11:55:00
7:15 AM,26.6,24.4,92,29.93,3.0,Calm,Calm,-,N/A,,Clear,0,2013-03-15 12:15:00
7:35 AM,26.6,24.4,92,29.93,2.5,Calm,Calm,-,N/A,,Clear,0,2013-03-15 12:35:00
7:55 AM,27.9,25.7,92,29.94,2.5,Calm,Calm,-,N/A,,Clear,0,2013-03-15 12:55:00
8:15 AM,28.8,26.4,91,29.94,3.0,Calm,Calm,-,N/A,,Clear,0,2013-03-15 13:15:00
8:35 AM,30.7,28.4,91,29.94,4.0,Calm,Calm,-,N/A,,Clear,0,2013-03-15 13:35:00
8:55 AM,32.5,30.0,90,29.94,4.0,West,6.9,-,N/A,,Scattered Clouds,270,2013-03-15 13:55:00
9:15 AM,32.9,30.2,90,29.93,4.0,West,5.8,-,N/A,,Clear,280,2013-03-15 14:15:00
9:35 AM,33.8,30.9,89,29.94,4.0,West,8.1,-,N/A,,Clear,270,2013-03-15 14:35:00
9:55 AM,35.1,32.0,89,29.92,5.0,West,4.6,-,N/A,,Scattered Clouds,280,2013-03-15 14:55:00
10:55 AM,35.2,31.1,85,29.91,5.0,Calm,Calm,-,N/A,,Scattered Clouds,0,2013-03-15 15:55:00
11:15 AM,35.2,31.1,85,29.91,5.0,Calm,Calm,-,N/A,,Scattered Clouds,0,2013-03-15 16:15:00
11:35 AM,35.2,31.3,85,29.91,5.0,Calm,Calm,-,N/A,,Clear,0,2013-03-15 16:35:00
11:55 AM,35.2,31.1,85,29.91,5.0,Calm,Calm,-,N/A,Rain,Rain,0,2013-03-15 16:55:00
12:15 PM,35.6,32.0,87,29.89,4.0,East,4.6,-,0.01,Rain,Rain,80,2013-03-15 17:15:00
12:35 PM,35.2,32.0,88,29.89,3.0,East,6.9,-,0.02,Rain,Light Rain,80,2013-03-15 17:35:00
12:55 PM,35.1,32.2,89,29.88,2.5,ESE,6.9,-,0.02,,Light Drizzle,110,2013-03-15 17:55:00
1:15 PM,35.8,32.9,89,29.91,2.5,South,3.5,-,N/A,Rain,Light Rain,190,2013-03-15 18:15:00
1:35 PM,35.6,32.9,90,29.91,2.5,WSW,3.5,-,N/A,Rain,Light Rain,240,2013-03-15 18:35:00
1:55 PM,35.8,32.9,89,29.89,2.0,South,3.5,-,0.02,Rain,Light Rain,190,2013-03-15 18:55:00
2:15 PM,35.1,32.4,90,29.88,2.0,Calm,Calm,-,0.01,Rain,Light Rain,0,2013-03-15 19:15:00
2:35 PM,35.1,32.5,91,29.87,1.8,South,3.5,-,0.01,Rain,Light Rain,180,2013-03-15 19:35:00
2:55 PM,35.1,32.5,91,29.86,1.8,SSE,3.5,-,0.02,,Drizzle,160,2013-03-15 19:55:00
3:15 PM,35.1,32.7,91,29.86,2.0,Calm,Calm,-,N/A,,Light Drizzle,0,2013-03-15 20:15:00
3:35 PM,35.2,32.9,91,29.84,2.5,ENE,4.6,-,N/A,,Clear,70,2013-03-15 20:35:00
3:55 PM,35.2,32.5,90,29.85,3.0,NE,4.6,-,N/A,,Clear,40,2013-03-15 20:55:00
4:15 PM,35.4,32.7,90,29.85,2.5,Calm,Calm,-,N/A,,Light Drizzle,0,2013-03-15 21:15:00
4:35 PM,35.6,32.9,90,29.83,2.0,ENE,5.8,-,N/A,Rain,Light Rain,70,2013-03-15 21:35:00
4:55 PM,35.1,32.7,91,29.81,1.8,ENE,8.1,-,N/A,,Light Drizzle,70,2013-03-15 21:55:00
5:15 PM,35.1,32.9,92,29.81,1.8,East,8.1,-,N/A,Rain,Light Rain,90,2013-03-15 22:15:00
5:35 PM,35.1,32.9,92,29.81,1.5,ENE,4.6,-,N/A,,Drizzle,70,2013-03-15 22:35:00
5:55 PM,35.1,32.9,92,29.79,1.2,East,9.2,-,N/A,,Mostly Cloudy,80,2013-03-15 22:55:00
6:15 PM,35.1,32.9,92,29.77,1.2,East,10.4,-,N/A,,Overcast,100,2013-03-15 23:15:00
6:35 PM,35.1,32.9,92,29.75,1.0,East,11.5,-,N/A,,Overcast,90,2013-03-15 23:35:00
6:55 PM,35.1,32.9,92,29.77,1.0,ESE,5.8,-,N/A,,Overcast,120,2013-03-15 23:55:00
7:15 PM,35.1,32.9,92,29.82,1.8,WNW,6.9,-,N/A,,Overcast,300,2013-03-16 00:15:00
7:35 PM,34.9,32.7,92,29.83,1.8,NNE,10.4,-,N/A,,Overcast,30,2013-03-16 00:35:00
7:55 PM,33.1,31.3,93,29.83,1.5,NE,9.2,-,N/A,,Overcast,40,2013-03-16 00:55:00
8:15 PM,32.5,30.9,94,29.83,1.8,NE,10.4,-,N/A,,Overcast,50,2013-03-16 01:15:00
8:35 PM,32.2,30.6,94,29.82,1.8,NE,10.4,-,N/A,,Overcast,50,2013-03-16 01:35:00
8:55 PM,32.0,30.2,93,29.80,1.8,NE,13.8,-,N/A,,Overcast,50,2013-03-16 01:55:00
9:15 PM,32.0,30.0,92,29.80,2.0,NE,13.8,-,N/A,,Overcast,50,2013-03-16 02:15:00
9:35 PM,32.0,30.0,92,29.80,2.5,NE,15.0,-,N/A,,Overcast,50,2013-03-16 02:35:00
9:55 PM,32.0,30.0,92,29.78,2.0,ENE,13.8,18.4,N/A,,Overcast,70,2013-03-16 02:55:00
10:15 PM,32.0,30.0,92,29.77,2.0,ENE,15.0,-,N/A,,Overcast,60,2013-03-16 03:15:00
10:35 PM,32.0,30.0,92,29.76,1.8,ENE,15.0,-,N/A,,Overcast,60,2013-03-16 03:35:00
10:55 PM,32.0,30.0,92,29.75,1.2,ENE,15.0,-,N/A,,Overcast,60,2013-03-16 03:55:00
11:15 PM,32.0,30.0,92,29.73,0.5,ENE,11.5,15.0,N/A,Fog,Fog,70,2013-03-16 04:15:00
11:35 PM,32.0,30.0,92,29.74,0.5,NE,13.8,-,N/A,Fog,Fog,50,2013-03-16 04:35:00
11:55 PM,32.0,29.8,92,29.73,0.8,ENE,15.0,-,N/A,,Overcast,60,2013-03-16 04:55:00